Seattle Boeing, WA
on Tuesday, December 25, 2012

Tuesday
Previous Day Next Day
Daily Summary
 ActualAverage (KSEA)Record (KSEA)
Temperature
Mean Temperature °F 40°F  
Max Temperature 44°F 45°F 60°F (1980)
Min Temperature 37°F 35°F 24°F (1995)
Degree Days
Heating Degree Days 24 25  
Month to date heating degree days 610  
Since 1 July heating degree days 1793  
Cooling Degree Days 0 0  
Month to date cooling degree days 0  
Year to date cooling degree days 189  
Moisture
Dew Point 35°F   
Average Humidity 78    
Maximum Humidity 93    
Minimum Humidity 63    
Precipitation
Precipitation 0.41 in 0.17 in 1.06 in (1998)
Month to date precipitation 4.37  
Year to date precipitation 36.51  
Snow
Snow 0.00 in in 1.00 in (1965)
Month to date snowfall  
Since 1 July snowfall  
Snow Depth in   
Wind
Wind Speed 3 mph   
Max Wind Speed 14 mph   
Max Gust Speed 22 mph   
Visibility 9 miles   
Events Rain   

Key: T is trace of precipitation, MM is missing value
Source: NWS Daily Summary
Time(PST)TemperatureDew PointHumidity Pressure Visibility Wind DirectionWind SpeedGust SpeedPrecipitationEvents Conditions
12:53 AM 39.0°F 36.0°F 89% 30.02 in 10.0 miles Calm Calm - N/A   Partly Cloudy
1:53 AM 37.9°F 35.1°F 89% 29.99 in 8.0 miles Calm Calm - N/A   Partly Cloudy
2:53 AM 37.9°F 36.0°F 93% 29.96 in 9.0 miles Calm Calm - N/A   Partly Cloudy
3:53 AM 37.9°F 36.0°F 93% 29.91 in 10.0 miles Calm Calm - N/A   Overcast
4:53 AM 37.9°F 35.1°F 89% 29.86 in 10.0 miles Calm Calm - N/A   Overcast
5:53 AM 39.0°F 36.0°F 89% 29.83 in 10.0 miles Calm Calm - N/A   Overcast
6:53 AM 39.0°F 35.1°F 86% 29.81 in 10.0 miles Calm Calm - N/A   Overcast
7:53 AM 42.1°F 34.0°F 73% 29.77 in 10.0 miles ESE 3.5 mph - 0.01 in Rain Light Rain
8:53 AM 42.1°F 34.0°F 73% 29.75 in 7.0 miles SE 8.1 mph 17.3 mph 0.04 in Rain Light Rain
9:53 AM 41.0°F 34.0°F 76% 29.73 in 8.0 miles SE 11.5 mph 19.6 mph 0.14 in Rain Light Rain
10:53 AM 41.0°F 35.1°F 79% 29.71 in 6.0 miles ESE 13.8 mph 21.9 mph 0.07 in Rain Light Rain
11:53 AM 41.0°F 35.1°F 79% 29.68 in 9.0 miles ESE 10.4 mph - 0.05 in Rain Light Rain
12:53 PM 41.0°F 35.1°F 79% 29.68 in 6.0 miles ESE 11.5 mph - 0.07 in Rain Light Rain
1:53 PM 41.0°F 35.1°F 79% 29.67 in 10.0 miles ESE 9.2 mph - 0.02 in Rain Light Rain
2:53 PM 43.0°F 35.1°F 74% 29.68 in 10.0 miles SE 8.1 mph - 0.00 in Rain Light Rain
3:53 PM 43.0°F 34.0°F 71% 29.68 in 10.0 miles SE 8.1 mph - 0.01 in   Overcast
4:53 PM 43.0°F 35.1°F 74% 29.68 in 10.0 miles Calm Calm - N/A   Overcast
5:53 PM 43.0°F 33.1°F 68% 29.67 in 10.0 miles SE 9.2 mph - 0.00 in   Overcast
6:53 PM 43.0°F 33.1°F 68% 29.67 in 9.0 miles ESE 8.1 mph - 0.00 in Rain Light Rain
7:53 PM 44.1°F 32.0°F 63% 29.66 in 10.0 miles ESE 9.2 mph - 0.00 in Rain Light Rain
8:53 PM 43.0°F 33.1°F 68% 29.67 in 10.0 miles SE 3.5 mph - 0.00 in Rain Light Rain
9:53 PM 43.0°F 34.0°F 71% 29.69 in 10.0 miles South 3.5 mph - 0.00 in Rain Light Rain
10:53 PM 42.1°F 34.0°F 73% 29.70 in 10.0 miles South 3.5 mph - 0.00 in   Overcast
11:53 PM 43.0°F 33.1°F 68% 29.70 in 10.0 miles Calm Calm - 0.00 in   Overcast
Moon Phase
Dec. 25 Dec. 28 Jan. 04 Jan. 11 Jan. 18
Sunrise:07:56 AM (PST) Moon Rise:02:38 PM (PST)
Sunset:04:23 PM (PST) Moon Set:05:30 AM (PST)

Copyright © 2014 The Weather Underground, Inc.